Location: New Canada
(47.1017°N, 68.5042°W)
Time: 11:55:21
(UTC+00:00)

N. Korean satellite - Pass Details

Date: 04 December 2022
Orbit: 407 x 441 km, 97.3° (Epoch: 05 February)

Event Time Altitude Azimuth Distance (km) Brightness Sun altitude
Rises 09:36:54 0° 18° (NNE) 2,524 10.3 -24.0°
Reaches altitude 10° 09:39:02 10° 24° (NNE) 1,637 9.4 -23.6°
Maximum altitude 09:42:26 46° 99° (E) 636 7.5 -23.1°
Drops below altitude 10° 09:45:46 10° 174° (S) 1,600 9.3 -22.5°
Sets 09:47:49 0° 180° (S) 2,458 10.3 -22.1°
